Sand Point, AK

12:07 AM AKDT on May 26, 2017 (GMT -0800)
Sand Point

Weather History for PASD - July, 2013

Change the Weather History Date:

Friday, July 19, 2013

  Actual Average Record
Temperature  
Mean Temperature 58 °F -  
Max Temperature 64 °F 53 °F 71 °F (1986)
Min Temperature 53 °F 47 °F 37 °F (1982)
Degree Days  
Heating Degree Days 6    
Growing Degree Days 8 (Base 50)    
Moisture  
Dew Point 55 °F    
Average Humidity 92    
Maximum Humidity 100    
Minimum Humidity 77    
Precipitation  
Precipitation 0.00 in - - ()
Sea Level Pressure  
Sea Level Pressure 30.50 in    
Wind  
Wind Speed 4 mph (SE)    
Max Wind Speed 14 mph    
Max Gust Speed 18 mph    
Visibility 10 miles    
Events      
Averages and records for this station are not official NWS values.
T = Trace of Precipitation, MM = Missing Value Source: NWS Daily Summary

Daily Weather History Graph

Daily Weather History Graph

Search for Another Location

Airport or City:

Trip Planner

Search our weather history database for the weather conditions in past years. The results will help you decide how hot, cold, wet, or windy it might be!

Date:

Astronomy

Jul. 19, 2013 Rise Set
Actual Time 6:28 AM AKDT 11:07 PM AKDT
Civil Twilight 5:36 AM AKDT 11:59 PM AKDT
Nautical Twilight 4:09 AM AKDT 1:24 AM AKDT
Astronomical Twilight Sun does not set Sun does not set
Moon 8:20 PM AKDT (7/19) 3:23 AM AKDT (7/19)
Length of Visible Light 18h 22m
Length of Day
16h 39m
Waxing Gibbous, 88% of the Moon is Illuminated
Jul 19
Waxing Gibbous
Jul 22
Full
Jul 29
Last Quarter
Aug 6
New
Aug 14
First Quarter

Hourly Weather History & Observations

Time (AKDT) Temp. Dew Point Humidity Pressure Visibility Wind Dir Wind Speed Gust Speed Precip Events Conditions
12:16 AM 53.6 °F 53.6 °F 100% 30.47 in 10.0 mi Calm Calm - N/A   Overcast
12:36 AM 53.6 °F 53.6 °F 100% 30.47 in 10.0 mi Calm Calm - N/A   Overcast
12:56 AM 53.6 °F 51.8 °F 94% 30.48 in 10.0 mi Calm Calm - N/A   Overcast
1:16 AM 53.6 °F 53.6 °F 100% 30.48 in 10.0 mi Calm Calm - N/A   Overcast
1:36 AM 53.6 °F 51.8 °F 94% 30.48 in 10.0 mi SSE 8.1 mph - N/A   Overcast
1:56 AM 53.6 °F 53.6 °F 100% 30.49 in 10.0 mi SSE 6.9 mph - N/A   Overcast
2:16 AM 53.6 °F 51.8 °F 94% 30.48 in 10.0 mi SE 4.6 mph - N/A   Overcast
2:36 AM 53.6 °F 51.8 °F 94% 30.48 in 10.0 mi North 3.5 mph - N/A   Overcast
2:56 AM 53.6 °F 53.6 °F 100% 30.48 in 10.0 mi SE 3.5 mph - N/A   Overcast
3:16 AM 53.6 °F 51.8 °F 94% 30.48 in 10.0 mi SE 9.2 mph - N/A   Overcast
3:36 AM 53.6 °F 51.8 °F 94% 30.49 in 10.0 mi SSE 4.6 mph - N/A   Overcast
3:56 AM 53.6 °F 53.6 °F 100% 30.49 in 10.0 mi Calm Calm - N/A   Overcast
4:16 AM 53.6 °F 53.6 °F 100% 30.49 in 10.0 mi Calm Calm - N/A   Overcast
4:36 AM 53.6 °F 53.6 °F 100% 30.48 in 10.0 mi ESE 5.8 mph - N/A   Overcast
4:56 AM 53.6 °F 53.6 °F 100% 30.48 in 10.0 mi ESE 5.8 mph - N/A   Overcast
5:16 AM 53.6 °F 51.8 °F 94% 30.48 in 10.0 mi SE 5.8 mph - N/A   Overcast
5:36 AM 53.6 °F 53.6 °F 100% 30.48 in 10.0 mi SE 4.6 mph - N/A   Overcast
5:56 AM 53.6 °F 53.6 °F 100% 30.48 in 10.0 mi SE 4.6 mph - N/A   Overcast
6:16 AM 53.6 °F 53.6 °F 100% 30.50 in 10.0 mi SE 8.1 mph - N/A   Overcast
6:36 AM 55.4 °F 55.4 °F 100% 30.49 in 10.0 mi SE 6.9 mph - N/A   Overcast
6:56 AM 53.6 °F 53.6 °F 100% 30.49 in 10.0 mi SE 6.9 mph - N/A   Overcast
7:16 AM 55.4 °F 55.4 °F 100% 30.50 in 10.0 mi ESE 4.6 mph - N/A   Overcast
7:36 AM 53.6 °F 53.6 °F 100% 30.51 in 10.0 mi SE 8.1 mph - N/A   Overcast
7:56 AM 53.6 °F 53.6 °F 100% 30.50 in 10.0 mi SSE 8.1 mph - N/A   Mostly Cloudy
8:16 AM 55.4 °F 55.4 °F 100% 30.50 in 10.0 mi SE 9.2 mph - N/A   Mostly Cloudy
8:36 AM 55.4 °F 53.6 °F 94% 30.50 in 10.0 mi SSE 13.8 mph - N/A   Mostly Cloudy
8:56 AM 53.6 °F 53.6 °F 100% 30.50 in 10.0 mi SE 12.7 mph 18.4 mph N/A   Mostly Cloudy
9:16 AM 53.6 °F 51.8 °F 94% 30.50 in 10.0 mi SE 10.4 mph 16.1 mph N/A   Mostly Cloudy
9:36 AM 53.6 °F 51.8 °F 94% 30.52 in 10.0 mi SE 8.1 mph - N/A   Mostly Cloudy
9:56 AM 55.4 °F 55.4 °F 100% 30.51 in 10.0 mi SE 10.4 mph - N/A   Mostly Cloudy
10:16 AM 55.4 °F 55.4 °F 100% 30.52 in 10.0 mi South 10.4 mph - N/A   Mostly Cloudy
10:36 AM 55.4 °F 55.4 °F 100% 30.51 in 10.0 mi SE 5.8 mph - N/A   Mostly Cloudy
10:56 AM 55.4 °F 55.4 °F 100% 30.52 in 10.0 mi East 5.8 mph - N/A   Partly Cloudy
11:16 AM 57.2 °F 55.4 °F 94% 30.53 in 10.0 mi ESE 5.8 mph - N/A   Mostly Cloudy
11:36 AM 59.0 °F 55.4 °F 88% 30.53 in 10.0 mi SSE 5.8 mph - N/A   Mostly Cloudy
11:56 AM 60.8 °F 55.4 °F 82% 30.54 in 10.0 mi Calm Calm - N/A   Mostly Cloudy
12:16 PM 60.8 °F 57.2 °F 88% 30.49 in 10.0 mi ESE 4.6 mph - N/A   Mostly Cloudy
12:36 PM 60.8 °F 55.4 °F 82% 30.50 in 10.0 mi North 3.5 mph - N/A   Mostly Cloudy
12:56 PM 60.8 °F 57.2 °F 88% 30.50 in 10.0 mi SSE 3.5 mph - N/A   Mostly Cloudy
1:16 PM 62.6 °F 57.2 °F 82% 30.51 in 10.0 mi Calm Calm - N/A   Mostly Cloudy
1:36 PM 62.6 °F 57.2 °F 82% 30.50 in 10.0 mi Calm Calm - N/A   Mostly Cloudy
1:56 PM 62.6 °F 57.2 °F 82% 30.50 in 10.0 mi NW 3.5 mph - N/A   Mostly Cloudy
2:16 PM 60.8 °F 57.2 °F 88% 30.50 in 10.0 mi South 5.8 mph - N/A   Mostly Cloudy
2:36 PM 60.8 °F 57.2 °F 88% 30.51 in 10.0 mi SW 5.8 mph - N/A   Mostly Cloudy
2:56 PM 62.6 °F 57.2 °F 82% 30.54 in 10.0 mi SE 4.6 mph - N/A   Mostly Cloudy
3:16 PM 62.6 °F 57.2 °F 82% 30.50 in 10.0 mi SE 9.2 mph - N/A   Mostly Cloudy
3:36 PM 62.6 °F 57.2 °F 82% 30.51 in 10.0 mi SSE 4.6 mph - N/A   Mostly Cloudy
3:56 PM 64.4 °F 59.0 °F 83% 30.50 in 10.0 mi SSE 6.9 mph - N/A   Mostly Cloudy
4:16 PM 64.4 °F 57.2 °F 77% 30.50 in 10.0 mi SSE 6.9 mph - N/A   Mostly Cloudy
4:36 PM 64.4 °F 59.0 °F 83% 30.50 in 10.0 mi SSE 9.2 mph - N/A   Mostly Cloudy
4:56 PM 64.4 °F 59.0 °F 83% 30.49 in 10.0 mi SSE 9.2 mph - N/A   Mostly Cloudy
5:16 PM 64.4 °F 59.0 °F 83% 30.50 in 10.0 mi SSE 5.8 mph - N/A   Mostly Cloudy
5:56 PM 62.6 °F 57.2 °F 82% 30.50 in 10.0 mi NNE 5.8 mph - N/A   Unknown
6:16 PM 64.4 °F 59.0 °F 83% 30.50 in 10.0 mi North 3.5 mph - N/A   Mostly Cloudy
6:36 PM 62.6 °F 57.2 °F 82% 30.50 in 10.0 mi West 5.8 mph - N/A   Mostly Cloudy
6:56 PM 62.6 °F 57.2 °F 82% 30.50 in 10.0 mi NNW 5.8 mph - N/A   Mostly Cloudy
7:16 PM 60.8 °F 57.2 °F 88% 30.49 in 10.0 mi Calm Calm - N/A   Mostly Cloudy
7:36 PM 59.0 °F 55.4 °F 88% 30.49 in 10.0 mi Calm Calm - N/A   Mostly Cloudy
7:56 PM 60.8 °F 57.2 °F 88% 30.49 in 10.0 mi South 3.5 mph - N/A   Mostly Cloudy
8:16 PM 60.8 °F 57.2 °F 88% 30.51 in 10.0 mi Calm Calm - N/A   Overcast
8:36 PM 60.8 °F 57.2 °F 88% 30.51 in 10.0 mi Calm Calm - N/A   Overcast
8:56 PM 60.8 °F 57.2 °F 88% 30.51 in 10.0 mi North 3.5 mph - N/A   Overcast
9:16 PM 57.2 °F 55.4 °F 94% 30.51 in 10.0 mi SSW 3.5 mph - N/A   Overcast
9:36 PM 55.4 °F 53.6 °F 94% 30.51 in 10.0 mi Calm Calm - N/A   Overcast
9:56 PM 55.4 °F 53.6 °F 94% 30.52 in 10.0 mi Calm Calm - N/A   Overcast
10:16 PM 55.4 °F 53.6 °F 94% 30.52 in 10.0 mi Calm Calm - N/A   Overcast
10:36 PM 55.4 °F 55.4 °F 100% 30.52 in 10.0 mi Calm Calm - N/A   Overcast
10:56 PM 55.4 °F 53.6 °F 94% 30.52 in 10.0 mi North 3.5 mph - N/A   Overcast
11:16 PM 53.6 °F 51.8 °F 94% 30.52 in 10.0 mi North 3.5 mph - N/A   Overcast
11:36 PM 53.6 °F 51.8 °F 94% 30.52 in 10.0 mi North 3.5 mph - N/A   Overcast
11:56 PM 53.6 °F 51.8 °F 94% 30.52 in 10.0 mi Calm Calm - N/A   Overcast